owner,sensor,date,latitude,longitude,air_pressure(mBar),qcFlag 
TABS,ioos:station:wmo:42046:1,2010-01-01T00:00:00Z,27.8903,-94.0367,1017.83,11111222 
TABS,ioos:station:wmo:42046:1,2010-01-01T00:30:00Z,27.8903,-94.0367,1018.08,11111222 
TABS,ioos:station:wmo:42046:1,2010-01-01T01:00:00Z,27.8903,-94.0367,1018.55,11111222 
TABS,ioos:station:wmo:42046:1,2010-01-01T01:30:00Z,27.8903,-94.0367,1018.84,11111222 
TABS,ioos:station:wmo:42046:1,2010-01-01T02:00:00Z,27.8903,-94.0367,1018.64,11111222 
TABS,ioos:station:wmo:42046:1,2010-01-01T02:30:00Z,27.8903,-94.0367,1018.78,11111222 
TABS,ioos:station:wmo:42046:1,2010-01-01T03:00:00Z,27.8903,-94.0367,1018.83,11111222 
TABS,ioos:station:wmo:42046:1,2010-01-01T03:30:00Z,27.8903,-94.0367,1019.07,11111222 
TABS,ioos:station:wmo:42046:1,2010-01-01T04:00:00Z,27.8903,-94.0367,1019.29,11111222 
TABS,ioos:station:wmo:42046:1,2010-01-01T04:30:00Z,27.8903,-94.0367,1018.98,11111222 
TABS,ioos:station:wmo:42046:1,2010-01-01T05:00:00Z,27.8903,-94.0367,1020.21,11111222 
TABS,ioos:station:wmo:42046:1,2010-01-01T05:30:00Z,27.8903,-94.0367,1021.16,11111222 
TABS,ioos:station:wmo:42046:1,2010-01-01T06:00:00Z,27.8903,-94.0367,1021.93,11111222 
TABS,ioos:station:wmo:42046:1,2010-01-01T06:30:00Z,27.8903,-94.0367,1021.98,11111222 
TABS,ioos:station:wmo:42046:1,2010-01-01T07:00:00Z,27.8903,-94.0367,1022.56,11111222 
TABS,ioos:station:wmo:42046:1,2010-01-01T07:30:00Z,27.8903,-94.0367,1022.47,11111222 
TABS,ioos:station:wmo:42046:1,2010-01-01T08:00:00Z,27.8903,-94.0367,1023.15,11111222 
TABS,ioos:station:wmo:42046:1,2010-01-01T08:30:00Z,27.8903,-94.0367,1023.18,11111222 
TABS,ioos:station:wmo:42046:1,2010-01-01T09:00:00Z,27.8903,-94.0367,1023.75,11111222 
TABS,ioos:station:wmo:42046:1,2010-01-01T09:30:00Z,27.8903,-94.0367,1023.96,11111222 
TABS,ioos:station:wmo:42046:1,2010-01-01T10:00:00Z,27.8903,-94.0367,1024.01,11111222 
TABS,ioos:station:wmo:42046:1,2010-01-01T10:30:00Z,27.8903,-94.0367,1024.1,11111222 
TABS,ioos:station:wmo:42046:1,2010-01-01T11:00:00Z,27.8903,-94.0367,1024.45,11111222 
TABS,ioos:station:wmo:42046:1,2010-01-01T11:30:00Z,27.8903,-94.0367,1024.5,11111222 
TABS,ioos:station:wmo:42046:1,2010-01-01T12:00:00Z,27.8903,-94.0367,1024.72,11111222 
TABS,ioos:station:wmo:42046:1,2010-01-01T12:30:00Z,27.8903,-94.0367,1025.64,11111222 
TABS,ioos:station:wmo:42046:1,2010-01-01T13:00:00Z,27.8903,-94.0367,1025.12,11111222 
TABS,ioos:station:wmo:42046:1,2010-01-01T13:30:00Z,27.8903,-94.0367,1026.22,11111222 
TABS,ioos:station:wmo:42046:1,2010-01-01T14:00:00Z,27.8903,-94.0367,1026.63,11111222 
TABS,ioos:station:wmo:42046:1,2010-01-01T14:30:00Z,27.8903,-94.0367,1026.59,11111222 
TABS,ioos:station:wmo:42046:1,2010-01-01T15:00:00Z,27.8903,-94.0367,1028.0,11111222 
TABS,ioos:station:wmo:42046:1,2010-01-01T15:30:00Z,27.8903,-94.0367,1028.88,11111222 
TABS,ioos:station:wmo:42046:1,2010-01-01T16:00:00Z,27.8903,-94.0367,1028.88,11111222 
TABS,ioos:station:wmo:42046:1,2010-01-01T16:30:00Z,27.8903,-94.0367,1029.31,11111222 
TABS,ioos:station:wmo:42046:1,2010-01-01T17:00:00Z,27.8903,-94.0367,1029.19,11111222 
TABS,ioos:station:wmo:42046:1,2010-01-01T17:30:00Z,27.8903,-94.0367,1029.38,11111222 
TABS,ioos:station:wmo:42046:1,2010-01-01T18:00:00Z,27.8903,-94.0367,1028.86,11111222 
TABS,ioos:station:wmo:42046:1,2010-01-01T18:30:00Z,27.8903,-94.0367,1028.27,11111222 
TABS,ioos:station:wmo:42046:1,2010-01-01T19:00:00Z,27.8903,-94.0367,1028.18,11111222 
TABS,ioos:station:wmo:42046:1,2010-01-01T19:30:00Z,27.8903,-94.0367,1027.94,11111222 
TABS,ioos:station:wmo:42046:1,2010-01-01T20:00:00Z,27.8903,-94.0367,1027.42,11111222 
TABS,ioos:station:wmo:42046:1,2010-01-01T20:30:00Z,27.8903,-94.0367,1027.18,11111222 
TABS,ioos:station:wmo:42046:1,2010-01-01T21:00:00Z,27.8903,-94.0367,1027.04,11111222 
TABS,ioos:station:wmo:42046:1,2010-01-01T21:30:00Z,27.8903,-94.0367,1027.0,11111222 
TABS,ioos:station:wmo:42046:1,2010-01-01T22:00:00Z,27.8903,-94.0367,1026.77,11111222 
TABS,ioos:station:wmo:42046:1,2010-01-01T22:30:00Z,27.8903,-94.0367,1026.67,11111222 
TABS,ioos:station:wmo:42046:1,2010-01-01T23:00:00Z,27.8903,-94.0367,1026.69,11111222 
TABS,ioos:station:wmo:42046:1,2010-01-01T23:30:00Z,27.8903,-94.0367,1026.71,11111222 
TABS,ioos:station:wmo:42046:1,2010-01-02T00:00:00Z,27.8903,-94.0367,1027.19,11111222 
TABS,ioos:station:wmo:42046:1,2010-01-02T00:30:00Z,27.8903,-94.0367,1027.53,11111222 
TABS,ioos:station:wmo:42046:1,2010-01-02T01:00:00Z,27.8903,-94.0367,1027.75,11111222 
TABS,ioos:station:wmo:42046:1,2010-01-02T01:30:00Z,27.8903,-94.0367,1028.11,11111222 
TABS,ioos:station:wmo:42046:1,2010-01-02T02:00:00Z,27.8903,-94.0367,1028.05,11111222 
TABS,ioos:station:wmo:42046:1,2010-01-02T02:30:00Z,27.8903,-94.0367,1028.21,11111222 
TABS,ioos:station:wmo:42046:1,2010-01-02T03:00:00Z,27.8903,-94.0367,1028.21,11111222 
TABS,ioos:station:wmo:42046:1,2010-01-02T03:30:00Z,27.8903,-94.0367,1028.12,11111222 
TABS,ioos:station:wmo:42046:1,2010-01-02T04:00:00Z,27.8903,-94.0367,1027.73,11111222 
TABS,ioos:station:wmo:42046:1,2010-01-02T04:30:00Z,27.8903,-94.0367,1028.01,11111222 
TABS,ioos:station:wmo:42046:1,2010-01-02T05:00:00Z,27.8903,-94.0367,1028.44,11111222 
TABS,ioos:station:wmo:42046:1,2010-01-02T05:30:00Z,27.8903,-94.0367,1028.1,11111222 
TABS,ioos:station:wmo:42046:1,2010-01-02T06:00:00Z,27.8903,-94.0367,1027.44,11111222 
TABS,ioos:station:wmo:42046:1,2010-01-02T06:30:00Z,27.8903,-94.0367,1027.13,11111222 
TABS,ioos:station:wmo:42046:1,2010-01-02T07:00:00Z,27.8903,-94.0367,1026.93,11111222 
TABS,ioos:station:wmo:42046:1,2010-01-02T07:30:00Z,27.8903,-94.0367,1026.98,11111222 
TABS,ioos:station:wmo:42046:1,2010-01-02T08:00:00Z,27.8903,-94.0367,1027.33,11111222 
TABS,ioos:station:wmo:42046:1,2010-01-02T08:30:00Z,27.8903,-94.0367,1026.43,11111222 
TABS,ioos:station:wmo:42046:1,2010-01-02T09:00:00Z,27.8903,-94.0367,1026.82,11111222 
TABS,ioos:station:wmo:42046:1,2010-01-02T09:30:00Z,27.8903,-94.0367,1026.62,11111222 
TABS,ioos:station:wmo:42046:1,2010-01-02T10:00:00Z,27.8903,-94.0367,1026.39,11111222 
TABS,ioos:station:wmo:42046:1,2010-01-02T10:30:00Z,27.8903,-94.0367,1026.35,11111222 
TABS,ioos:station:wmo:42046:1,2010-01-02T11:00:00Z,27.8903,-94.0367,1026.51,11111222 
TABS,ioos:station:wmo:42046:1,2010-01-02T11:30:00Z,27.8903,-94.0367,1027.07,11111222 
TABS,ioos:station:wmo:42046:1,2010-01-02T12:00:00Z,27.8903,-94.0367,1027.05,11111222 
TABS,ioos:station:wmo:42046:1,2010-01-02T12:30:00Z,27.8903,-94.0367,1027.26,11111222 
TABS,ioos:station:wmo:42046:1,2010-01-02T13:00:00Z,27.8903,-94.0367,1027.01,11111222 
TABS,ioos:station:wmo:42046:1,2010-01-02T13:30:00Z,27.8903,-94.0367,1027.3,11111222 
TABS,ioos:station:wmo:42046:1,2010-01-02T14:00:00Z,27.8903,-94.0367,1027.73,11111222 
TABS,ioos:station:wmo:42046:1,2010-01-02T14:30:00Z,27.8903,-94.0367,1027.96,11111222 
TABS,ioos:station:wmo:42046:1,2010-01-02T15:00:00Z,27.8903,-94.0367,1027.79,11111222 
TABS,ioos:station:wmo:42046:1,2010-01-02T15:30:00Z,27.8903,-94.0367,1027.89,11111222 
TABS,ioos:station:wmo:42046:1,2010-01-02T16:00:00Z,27.8903,-94.0367,1027.94,11111222 
TABS,ioos:station:wmo:42046:1,2010-01-02T16:30:00Z,27.8903,-94.0367,1027.84,11111222 
TABS,ioos:station:wmo:42046:1,2010-01-02T17:00:00Z,27.8903,-94.0367,1027.38,11111222 
TABS,ioos:station:wmo:42046:1,2010-01-02T17:30:00Z,27.8903,-94.0367,1026.94,11111222 
TABS,ioos:station:wmo:42046:1,2010-01-02T18:00:00Z,27.8903,-94.0367,1026.34,11111222 
TABS,ioos:station:wmo:42046:1,2010-01-02T18:30:00Z,27.8903,-94.0367,1025.42,11111222 
TABS,ioos:station:wmo:42046:1,2010-01-02T19:00:00Z,27.8903,-94.0367,1025.08,11111222 
TABS,ioos:station:wmo:42046:1,2010-01-02T19:30:00Z,27.8903,-94.0367,1024.6,11111222 
TABS,ioos:station:wmo:42046:1,2010-01-02T20:00:00Z,27.8903,-94.0367,1024.51,11111222 
TABS,ioos:station:wmo:42046:1,2010-01-02T20:30:00Z,27.8903,-94.0367,1024.38,11111222 
TABS,ioos:station:wmo:42046:1,2010-01-02T21:00:00Z,27.8903,-94.0367,1024.11,11111222 
TABS,ioos:station:wmo:42046:1,2010-01-02T21:30:00Z,27.8903,-94.0367,1023.96,11111222 
TABS,ioos:station:wmo:42046:1,2010-01-02T22:00:00Z,27.8903,-94.0367,1023.75,11111222 
TABS,ioos:station:wmo:42046:1,2010-01-02T22:30:00Z,27.8903,-94.0367,1023.31,11111222 
TABS,ioos:station:wmo:42046:1,2010-01-02T23:00:00Z,27.8903,-94.0367,1023.32,11111222 
TABS,ioos:station:wmo:42046:1,2010-01-02T23:30:00Z,27.8903,-94.0367,1023.34,11111222 
TABS,ioos:station:wmo:42046:1,2010-01-03T00:00:00Z,27.8903,-94.0367,1023.84,11111222 
TABS,ioos:station:wmo:42046:1,2010-01-03T00:30:00Z,27.8903,-94.0367,1023.94,11111222 
TABS,ioos:station:wmo:42046:1,2010-01-03T01:00:00Z,27.8903,-94.0367,1023.75,11111222 
TABS,ioos:station:wmo:42046:1,2010-01-03T01:30:00Z,27.8903,-94.0367,1023.79,11111222 
TABS,ioos:station:wmo:42046:1,2010-01-03T02:00:00Z,27.8903,-94.0367,1023.41,11111222 
TABS,ioos:station:wmo:42046:1,2010-01-03T02:30:00Z,27.8903,-94.0367,1023.35,11111222 
TABS,ioos:station:wmo:42046:1,2010-01-03T03:00:00Z,27.8903,-94.0367,1023.45,11111222 
TABS,ioos:station:wmo:42046:1,2010-01-03T03:30:00Z,27.8903,-94.0367,1023.51,11111222 
TABS,ioos:station:wmo:42046:1,2010-01-03T04:00:00Z,27.8903,-94.0367,1023.35,11111222 
TABS,ioos:station:wmo:42046:1,2010-01-03T04:30:00Z,27.8903,-94.0367,1023.2,11111222 
TABS,ioos:station:wmo:42046:1,2010-01-03T05:00:00Z,27.8903,-94.0367,1023.01,11111222 
TABS,ioos:station:wmo:42046:1,2010-01-03T05:30:00Z,27.8903,-94.0367,1022.38,11111222 
TABS,ioos:station:wmo:42046:1,2010-01-03T06:00:00Z,27.8903,-94.0367,1022.19,11111222 
TABS,ioos:station:wmo:42046:1,2010-01-03T06:30:00Z,27.8903,-94.0367,1021.28,11111222 
TABS,ioos:station:wmo:42046:1,2010-01-03T07:00:00Z,27.8903,-94.0367,1021.11,11111222 
TABS,ioos:station:wmo:42046:1,2010-01-03T07:30:00Z,27.8903,-94.0367,1021.47,11111222 
TABS,ioos:station:wmo:42046:1,2010-01-03T08:00:00Z,27.8903,-94.0367,1021.32,11111222 
TABS,ioos:station:wmo:42046:1,2010-01-03T08:30:00Z,27.8903,-94.0367,1021.13,11111222 
TABS,ioos:station:wmo:42046:1,2010-01-03T09:00:00Z,27.8903,-94.0367,1020.59,11111222 
TABS,ioos:station:wmo:42046:1,2010-01-03T09:30:00Z,27.8903,-94.0367,1020.49,11111222 
TABS,ioos:station:wmo:42046:1,2010-01-03T10:00:00Z,27.8903,-94.0367,1020.46,11111222 
TABS,ioos:station:wmo:42046:1,2010-01-03T10:30:00Z,27.8903,-94.0367,1020.27,11111222 
TABS,ioos:station:wmo:42046:1,2010-01-03T11:00:00Z,27.8903,-94.0367,1019.94,11111222 
TABS,ioos:station:wmo:42046:1,2010-01-03T11:30:00Z,27.8903,-94.0367,1020.27,11111222 
TABS,ioos:station:wmo:42046:1,2010-01-03T12:00:00Z,27.8903,-94.0367,1020.77,11111222 
TABS,ioos:station:wmo:42046:1,2010-01-03T12:30:00Z,27.8903,-94.0367,1020.89,11111222 
TABS,ioos:station:wmo:42046:1,2010-01-03T13:00:00Z,27.8903,-94.0367,1021.13,11111222 
TABS,ioos:station:wmo:42046:1,2010-01-03T13:30:00Z,27.8903,-94.0367,1020.93,11111222 
TABS,ioos:station:wmo:42046:1,2010-01-03T14:00:00Z,27.8903,-94.0367,1021.33,11111222 
TABS,ioos:station:wmo:42046:1,2010-01-03T14:30:00Z,27.8903,-94.0367,1021.57,11111222 
TABS,ioos:station:wmo:42046:1,2010-01-03T15:00:00Z,27.8903,-94.0367,1022.13,11111222 
TABS,ioos:station:wmo:42046:1,2010-01-03T15:30:00Z,27.8903,-94.0367,1022.43,11111222 
TABS,ioos:station:wmo:42046:1,2010-01-03T16:00:00Z,27.8903,-94.0367,1022.38,11111222 
TABS,ioos:station:wmo:42046:1,2010-01-03T16:30:00Z,27.8903,-94.0367,1022.16,11111222 
TABS,ioos:station:wmo:42046:1,2010-01-03T17:00:00Z,27.8903,-94.0367,1021.87,11111222 
TABS,ioos:station:wmo:42046:1,2010-01-03T17:30:00Z,27.8903,-94.0367,1021.4,11111222 
TABS,ioos:station:wmo:42046:1,2010-01-03T18:00:00Z,27.8903,-94.0367,1021.29,11111222 
TABS,ioos:station:wmo:42046:1,2010-01-03T18:30:00Z,27.8903,-94.0367,1020.83,11111222 
TABS,ioos:station:wmo:42046:1,2010-01-03T19:00:00Z,27.8903,-94.0367,1020.78,11111222 
TABS,ioos:station:wmo:42046:1,2010-01-03T19:30:00Z,27.8903,-94.0367,1020.43,11111222 
TABS,ioos:station:wmo:42046:1,2010-01-03T20:00:00Z,27.8903,-94.0367,1020.66,11111222 
TABS,ioos:station:wmo:42046:1,2010-01-03T20:30:00Z,27.8903,-94.0367,1020.49,11111222 
TABS,ioos:station:wmo:42046:1,2010-01-03T21:00:00Z,27.8903,-94.0367,1020.69,11111222 
TABS,ioos:station:wmo:42046:1,2010-01-03T21:30:00Z,27.8903,-94.0367,1020.71,11111222 
TABS,ioos:station:wmo:42046:1,2010-01-03T22:00:00Z,27.8903,-94.0367,1021.12,11111222 
TABS,ioos:station:wmo:42046:1,2010-01-03T22:30:00Z,27.8903,-94.0367,1021.4,11111222 
TABS,ioos:station:wmo:42046:1,2010-01-03T23:00:00Z,27.8903,-94.0367,1021.5,11111222 
TABS,ioos:station:wmo:42046:1,2010-01-03T23:30:00Z,27.8903,-94.0367,1021.66,11111222 
TABS,ioos:station:wmo:42046:1,2010-01-04T00:00:00Z,27.8903,-94.0367,1021.79,11111222 
TABS,ioos:station:wmo:42046:1,2010-01-04T00:30:00Z,27.8903,-94.0367,1022.06,11111222 
TABS,ioos:station:wmo:42046:1,2010-01-04T01:00:00Z,27.8903,-94.0367,1022.39,11111222 
TABS,ioos:station:wmo:42046:1,2010-01-04T01:30:00Z,27.8903,-94.0367,1022.87,11111222 
TABS,ioos:station:wmo:42046:1,2010-01-04T02:00:00Z,27.8903,-94.0367,1023.16,11111222 
TABS,ioos:station:wmo:42046:1,2010-01-04T02:30:00Z,27.8903,-94.0367,1023.34,11111222 
TABS,ioos:station:wmo:42046:1,2010-01-04T03:00:00Z,27.8903,-94.0367,1023.49,11111222 
TABS,ioos:station:wmo:42046:1,2010-01-04T03:30:00Z,27.8903,-94.0367,1024.03,11111222 
TABS,ioos:station:wmo:42046:1,2010-01-04T04:00:00Z,27.8903,-94.0367,1023.78,11111222 
TABS,ioos:station:wmo:42046:1,2010-01-04T04:30:00Z,27.8903,-94.0367,1024.33,11111222 
TABS,ioos:station:wmo:42046:1,2010-01-04T05:00:00Z,27.8903,-94.0367,1024.35,11111222 
TABS,ioos:station:wmo:42046:1,2010-01-04T05:30:00Z,27.8903,-94.0367,1024.17,11111222 
TABS,ioos:station:wmo:42046:1,2010-01-04T06:00:00Z,27.8903,-94.0367,1024.33,11111222 
TABS,ioos:station:wmo:42046:1,2010-01-04T06:30:00Z,27.8903,-94.0367,1023.99,11111222 
TABS,ioos:station:wmo:42046:1,2010-01-04T07:00:00Z,27.8903,-94.0367,1024.36,11111222 
TABS,ioos:station:wmo:42046:1,2010-01-04T07:30:00Z,27.8903,-94.0367,1024.29,11111222 
TABS,ioos:station:wmo:42046:1,2010-01-04T08:00:00Z,27.8903,-94.0367,1024.26,11111222 
TABS,ioos:station:wmo:42046:1,2010-01-04T08:30:00Z,27.8903,-94.0367,1024.39,11111222 
TABS,ioos:station:wmo:42046:1,2010-01-04T09:00:00Z,27.8903,-94.0367,1024.74,11111222 
TABS,ioos:station:wmo:42046:1,2010-01-04T09:30:00Z,27.8903,-94.0367,1025.07,11111222 
TABS,ioos:station:wmo:42046:1,2010-01-04T10:00:00Z,27.8903,-94.0367,1025.18,11111222 
TABS,ioos:station:wmo:42046:1,2010-01-04T10:30:00Z,27.8903,-94.0367,1025.38,11111222 
TABS,ioos:station:wmo:42046:1,2010-01-04T11:00:00Z,27.8903,-94.0367,1025.16,11111222 
TABS,ioos:station:wmo:42046:1,2010-01-04T11:30:00Z,27.8903,-94.0367,1025.19,11111222 
TABS,ioos:station:wmo:42046:1,2010-01-04T12:00:00Z,27.8903,-94.0367,1025.81,11111222 
TABS,ioos:station:wmo:42046:1,2010-01-04T12:30:00Z,27.8903,-94.0367,1026.15,11111222 
TABS,ioos:station:wmo:42046:1,2010-01-04T13:00:00Z,27.8903,-94.0367,1026.43,11111222 
TABS,ioos:station:wmo:42046:1,2010-01-04T13:30:00Z,27.8903,-94.0367,1026.48,11111222 
TABS,ioos:station:wmo:42046:1,2010-01-04T14:00:00Z,27.8903,-94.0367,1027.08,11111222 
TABS,ioos:station:wmo:42046:1,2010-01-04T14:30:00Z,27.8903,-94.0367,1027.07,11111222 
TABS,ioos:station:wmo:42046:1,2010-01-04T15:00:00Z,27.8903,-94.0367,1027.38,11111222 
TABS,ioos:station:wmo:42046:1,2010-01-04T15:30:00Z,27.8903,-94.0367,1028.12,11111222 
TABS,ioos:station:wmo:42046:1,2010-01-04T16:00:00Z,27.8903,-94.0367,1028.21,11111222 
TABS,ioos:station:wmo:42046:1,2010-01-04T16:30:00Z,27.8903,-94.0367,1028.54,11111222 
TABS,ioos:station:wmo:42046:1,2010-01-04T17:00:00Z,27.8903,-94.0367,1028.05,11111222 
TABS,ioos:station:wmo:42046:1,2010-01-04T17:30:00Z,27.8903,-94.0367,1027.59,11111222 
TABS,ioos:station:wmo:42046:1,2010-01-04T18:00:00Z,27.8903,-94.0367,1027.45,11111222 
TABS,ioos:station:wmo:42046:1,2010-01-04T18:30:00Z,27.8903,-94.0367,1027.52,11111222 
TABS,ioos:station:wmo:42046:1,2010-01-04T19:00:00Z,27.8903,-94.0367,1027.37,11111222 
TABS,ioos:station:wmo:42046:1,2010-01-04T19:30:00Z,27.8903,-94.0367,1027.25,11111222 
TABS,ioos:station:wmo:42046:1,2010-01-04T20:00:00Z,27.8903,-94.0367,1027.35,11111222 
TABS,ioos:station:wmo:42046:1,2010-01-04T20:30:00Z,27.8903,-94.0367,1027.43,11111222 
TABS,ioos:station:wmo:42046:1,2010-01-04T21:00:00Z,27.8903,-94.0367,1027.35,11111222 
TABS,ioos:station:wmo:42046:1,2010-01-04T21:30:00Z,27.8903,-94.0367,1027.5,11111222 
TABS,ioos:station:wmo:42046:1,2010-01-04T22:00:00Z,27.8903,-94.0367,1027.81,11111222 
TABS,ioos:station:wmo:42046:1,2010-01-04T22:30:00Z,27.8903,-94.0367,1027.82,11111222 
TABS,ioos:station:wmo:42046:1,2010-01-04T23:00:00Z,27.8903,-94.0367,1028.18,11111222 
TABS,ioos:station:wmo:42046:1,2010-01-04T23:30:00Z,27.8903,-94.0367,1027.88,11111222 
TABS,ioos:station:wmo:42046:1,2010-01-05T00:00:00Z,27.8903,-94.0367,1028.7,11111222 
TABS,ioos:station:wmo:42046:1,2010-01-05T00:30:00Z,27.8903,-94.0367,1028.58,11111222 
TABS,ioos:station:wmo:42046:1,2010-01-05T01:00:00Z,27.8903,-94.0367,1029.07,11111222 
TABS,ioos:station:wmo:42046:1,2010-01-05T01:30:00Z,27.8903,-94.0367,1029.09,11111222 
TABS,ioos:station:wmo:42046:1,2010-01-05T02:00:00Z,27.8903,-94.0367,1029.56,11111222 
TABS,ioos:station:wmo:42046:1,2010-01-05T02:30:00Z,27.8903,-94.0367,1029.52,11111222 
TABS,ioos:station:wmo:42046:1,2010-01-05T03:00:00Z,27.8903,-94.0367,1029.97,11111222 
TABS,ioos:station:wmo:42046:1,2010-01-05T03:30:00Z,27.8903,-94.0367,1030.48,11111222 
TABS,ioos:station:wmo:42046:1,2010-01-05T04:00:00Z,27.8903,-94.0367,1030.34,11111222 
TABS,ioos:station:wmo:42046:1,2010-01-05T04:30:00Z,27.8903,-94.0367,1030.05,11111222 
TABS,ioos:station:wmo:42046:1,2010-01-05T05:00:00Z,27.8903,-94.0367,1030.58,11111222 
TABS,ioos:station:wmo:42046:1,2010-01-05T05:30:00Z,27.8903,-94.0367,1030.49,11111222 
TABS,ioos:station:wmo:42046:1,2010-01-05T06:00:00Z,27.8903,-94.0367,1030.6,11111222 
TABS,ioos:station:wmo:42046:1,2010-01-05T06:30:00Z,27.8903,-94.0367,1030.23,11111222 
TABS,ioos:station:wmo:42046:1,2010-01-05T07:00:00Z,27.8903,-94.0367,1030.22,11111222 
TABS,ioos:station:wmo:42046:1,2010-01-05T07:30:00Z,27.8903,-94.0367,1030.09,11111222 
TABS,ioos:station:wmo:42046:1,2010-01-05T08:00:00Z,27.8903,-94.0367,1029.95,11111222 
TABS,ioos:station:wmo:42046:1,2010-01-05T08:30:00Z,27.8903,-94.0367,1029.61,11111222 
TABS,ioos:station:wmo:42046:1,2010-01-05T09:00:00Z,27.8903,-94.0367,1029.77,11111222 
TABS,ioos:station:wmo:42046:1,2010-01-05T09:30:00Z,27.8903,-94.0367,1029.89,11111222 
TABS,ioos:station:wmo:42046:1,2010-01-05T10:00:00Z,27.8903,-94.0367,1029.89,11111222 
TABS,ioos:station:wmo:42046:1,2010-01-05T10:30:00Z,27.8903,-94.0367,1029.99,11111222 
TABS,ioos:station:wmo:42046:1,2010-01-05T11:00:00Z,27.8903,-94.0367,1030.36,11111222 
TABS,ioos:station:wmo:42046:1,2010-01-05T11:30:00Z,27.8903,-94.0367,1030.43,11111222 
TABS,ioos:station:wmo:42046:1,2010-01-05T12:00:00Z,27.8903,-94.0367,1030.44,11111222 
TABS,ioos:station:wmo:42046:1,2010-01-05T12:30:00Z,27.8903,-94.0367,1031.09,11111222 
TABS,ioos:station:wmo:42046:1,2010-01-05T13:00:00Z,27.8903,-94.0367,1030.75,11111222 
TABS,ioos:station:wmo:42046:1,2010-01-05T13:30:00Z,27.8903,-94.0367,1031.21,11111222 
TABS,ioos:station:wmo:42046:1,2010-01-05T14:00:00Z,27.8903,-94.0367,1031.22,11111222 
TABS,ioos:station:wmo:42046:1,2010-01-05T14:30:00Z,27.8903,-94.0367,1031.45,11111222 
TABS,ioos:station:wmo:42046:1,2010-01-05T15:00:00Z,27.8903,-94.0367,1031.45,11111222 
TABS,ioos:station:wmo:42046:1,2010-01-05T15:30:00Z,27.8903,-94.0367,1031.57,11111222 
TABS,ioos:station:wmo:42046:1,2010-01-05T16:00:00Z,27.8903,-94.0367,1031.66,11111222 
TABS,ioos:station:wmo:42046:1,2010-01-05T16:30:00Z,27.8903,-94.0367,1031.72,11111222 
TABS,ioos:station:wmo:42046:1,2010-01-05T17:00:00Z,27.8903,-94.0367,1031.75,11111222 
TABS,ioos:station:wmo:42046:1,2010-01-05T17:30:00Z,27.8903,-94.0367,1031.31,11111222 
TABS,ioos:station:wmo:42046:1,2010-01-05T18:00:00Z,27.8903,-94.0367,1030.73,11111222 
TABS,ioos:station:wmo:42046:1,2010-01-05T18:30:00Z,27.8903,-94.0367,1029.98,11111222 
TABS,ioos:station:wmo:42046:1,2010-01-05T19:00:00Z,27.8903,-94.0367,1029.7,11111222 
TABS,ioos:station:wmo:42046:1,2010-01-05T19:30:00Z,27.8903,-94.0367,1029.35,11111222 
TABS,ioos:station:wmo:42046:1,2010-01-05T20:00:00Z,27.8903,-94.0367,1028.84,11111222 
TABS,ioos:station:wmo:42046:1,2010-01-05T20:30:00Z,27.8903,-94.0367,1028.69,11111222 
TABS,ioos:station:wmo:42046:1,2010-01-05T21:00:00Z,27.8903,-94.0367,1028.9,11111222 
TABS,ioos:station:wmo:42046:1,2010-01-05T21:30:00Z,27.8903,-94.0367,1028.69,11111222 
TABS,ioos:station:wmo:42046:1,2010-01-05T22:00:00Z,27.8903,-94.0367,1028.46,11111222 
TABS,ioos:station:wmo:42046:1,2010-01-05T22:30:00Z,27.8903,-94.0367,1028.61,11111222 
TABS,ioos:station:wmo:42046:1,2010-01-05T23:00:00Z,27.8903,-94.0367,1028.41,11111222 
TABS,ioos:station:wmo:42046:1,2010-01-05T23:30:00Z,27.8903,-94.0367,1028.93,11111222 
TABS,ioos:station:wmo:42046:1,2010-01-06T00:00:00Z,27.8903,-94.0367,1028.54,11111222 
TABS,ioos:station:wmo:42046:1,2010-01-06T00:30:00Z,27.8903,-94.0367,1028.45,11111222 
TABS,ioos:station:wmo:42046:1,2010-01-06T01:00:00Z,27.8903,-94.0367,1028.43,11111222 
TABS,ioos:station:wmo:42046:1,2010-01-06T01:30:00Z,27.8903,-94.0367,1028.38,11111222 
TABS,ioos:station:wmo:42046:1,2010-01-06T02:00:00Z,27.8903,-94.0367,1028.32,11111222 
TABS,ioos:station:wmo:42046:1,2010-01-06T02:30:00Z,27.8903,-94.0367,1028.34,11111222 
TABS,ioos:station:wmo:42046:1,2010-01-06T03:00:00Z,27.8903,-94.0367,1028.44,11111222 
TABS,ioos:station:wmo:42046:1,2010-01-06T03:30:00Z,27.8903,-94.0367,1028.37,11111222 
TABS,ioos:station:wmo:42046:1,2010-01-06T04:00:00Z,27.8903,-94.0367,1028.29,11111222 
TABS,ioos:station:wmo:42046:1,2010-01-06T04:30:00Z,27.8903,-94.0367,1028.3,11111222 
TABS,ioos:station:wmo:42046:1,2010-01-06T05:00:00Z,27.8903,-94.0367,1028.29,11111222 
TABS,ioos:station:wmo:42046:1,2010-01-06T05:30:00Z,27.8903,-94.0367,1028.26,11111222 
TABS,ioos:station:wmo:42046:1,2010-01-06T06:00:00Z,27.8903,-94.0367,1027.97,11111222 
TABS,ioos:station:wmo:42046:1,2010-01-06T06:30:00Z,27.8903,-94.0367,1027.82,11111222 
TABS,ioos:station:wmo:42046:1,2010-01-06T07:00:00Z,27.8903,-94.0367,1027.47,11111222 
TABS,ioos:station:wmo:42046:1,2010-01-06T07:30:00Z,27.8903,-94.0367,1027.0,11111222 
TABS,ioos:station:wmo:42046:1,2010-01-06T08:00:00Z,27.8903,-94.0367,1026.71,11111222 
TABS,ioos:station:wmo:42046:1,2010-01-06T08:30:00Z,27.8903,-94.0367,1026.39,11111222 
TABS,ioos:station:wmo:42046:1,2010-01-06T09:00:00Z,27.8903,-94.0367,1026.13,11111222 
TABS,ioos:station:wmo:42046:1,2010-01-06T09:30:00Z,27.8903,-94.0367,1025.63,11111222 
TABS,ioos:station:wmo:42046:1,2010-01-06T10:00:00Z,27.8903,-94.0367,1025.21,11111222 
TABS,ioos:station:wmo:42046:1,2010-01-06T10:30:00Z,27.8903,-94.0367,1025.2,11111222 
TABS,ioos:station:wmo:42046:1,2010-01-06T11:00:00Z,27.8903,-94.0367,1025.19,11111222 
TABS,ioos:station:wmo:42046:1,2010-01-06T11:30:00Z,27.8903,-94.0367,1025.34,11111222 
TABS,ioos:station:wmo:42046:1,2010-01-06T12:00:00Z,27.8903,-94.0367,1024.89,11111222 
TABS,ioos:station:wmo:42046:1,2010-01-06T12:30:00Z,27.8903,-94.0367,1024.72,11111222 
TABS,ioos:station:wmo:42046:1,2010-01-06T13:00:00Z,27.8903,-94.0367,1025.02,11111222 
TABS,ioos:station:wmo:42046:1,2010-01-06T13:30:00Z,27.8903,-94.0367,1025.21,11111222 
TABS,ioos:station:wmo:42046:1,2010-01-06T14:00:00Z,27.8903,-94.0367,1025.14,11111222 
TABS,ioos:station:wmo:42046:1,2010-01-06T14:30:00Z,27.8903,-94.0367,1025.61,11111222 
TABS,ioos:station:wmo:42046:1,2010-01-06T15:00:00Z,27.8903,-94.0367,1025.49,11111222 
TABS,ioos:station:wmo:42046:1,2010-01-06T15:30:00Z,27.8903,-94.0367,1025.7,11111222 
TABS,ioos:station:wmo:42046:1,2010-01-06T16:00:00Z,27.8903,-94.0367,1025.82,11111222 
TABS,ioos:station:wmo:42046:1,2010-01-06T16:30:00Z,27.8903,-94.0367,1025.39,11111222 
TABS,ioos:station:wmo:42046:1,2010-01-06T17:00:00Z,27.8903,-94.0367,1024.74,11111222 
TABS,ioos:station:wmo:42046:1,2010-01-06T17:30:00Z,27.8903,-94.0367,1024.2,11111222 
TABS,ioos:station:wmo:42046:1,2010-01-06T18:00:00Z,27.8903,-94.0367,1023.51,11111222 
TABS,ioos:station:wmo:42046:1,2010-01-06T18:30:00Z,27.8903,-94.0367,1022.81,11111222 